Mountain Home, Arkansas, United States (72653)
Lat: 36.34N, Lon: 92.39W
Wx Zone: ARZ005
Local Info
Past Weather Observations for Tuesday, April 26, 2016

NOTE: This archive is for the closest National Weather Service station to Mountain Home. Information may differ from the station used for current weather conditions.

Click here for Long-term Archive

Time Weather Temperature Dewpoint Humidity Pressure Winds Precip Visibility
23:53
Partly Cloudy
64°F / 18°C 57°F / 14°C 78% 29.71 in
(1006 mb)
SE 9.2 mph
(SE 15 kph)
- 10SM
22:53
Clear
64°F / 18°C 57°F / 14°C 78% 29.71 in
(1006 mb)
SE 9.2 mph
(SE 15 kph)
- 10SM
21:53
Clear
64°F / 18°C 57°F / 14°C 78% 29.71 in
(1006 mb)
SE 10.4 mph
(SE 17 kph)
- 10SM
20:53
Mostly Cloudy
66°F / 19°C 57°F / 14°C 73% 29.74 in
(1007 mb)
SE 8.1 mph
(SE 13 kph)
0.00 in
(0.00 mm)
10SM
19:53
Mostly Cloudy
Light Rain
66°F / 19°C 57°F / 14°C 73% 29.71 in
(1006 mb)
E 11.5 mph
(E 19 kph)
0.00 in
(0.00 mm)
10SM
18:53
Overcast
66°F / 19°C 57°F / 14°C 73% 29.74 in
(1007 mb)
ENE 12.7 mph
(ENE 20 kph)
0.00 in
(0.00 mm)
10SM
17:53
Overcast
75°F / 24°C 64°F / 18°C 69% 29.71 in
(1006 mb)
SE 5.8 mph
(SE 9 kph)
- 8SM
16:53
Partly Cloudy
79°F / 26°C 64°F / 18°C 61% 29.71 in
(1006 mb)
S 6.9 mph
(S 11 kph)
- 8SM
15:53
Partly Cloudy
77°F / 25°C 64°F / 18°C 65% 29.71 in
(1006 mb)
S 9.2 mph
(S 15 kph)
- 8SM
14:53
Mostly Cloudy
77°F / 25°C 64°F / 18°C 65% 29.74 in
(1007 mb)
S 8.1 mph
(S 13 kph)
- 8SM
13:53
Mostly Cloudy
75°F / 24°C 66°F / 19°C 74% 29.77 in
(1008 mb)
S 12.7 mph
(S 20 kph)
- 8SM
12:53
Overcast
73°F / 23°C 64°F / 18°C 74% 29.77 in
(1008 mb)
SSE 6.9 mph
(SSE 11 kph)
- 7SM
12:44
Overcast
73°F / 23°C 64°F / 18°C 74% 29.77 in
(1008 mb)
SSE 8.1 mph
(SSE 13 kph)
- 8SM
11:53
Overcast
75°F / 24°C 66°F / 19°C 74% 29.77 in
(1008 mb)
SSE 8.1 mph
(SSE 13 kph)
- 8SM
11:51
Overcast
75°F / 24°C 66°F / 19°C 74% 29.77 in
(1008 mb)
SSE 10.4 mph
(SSE 17 kph)
- 8SM
11:24
Overcast
75°F / 24°C 66°F / 19°C 74% 29.77 in
(1008 mb)
S 8.1 mph
(S 13 kph)
- 8SM
10:53
Overcast
73°F / 23°C 66°F / 19°C 78% 29.77 in
(1008 mb)
S 6.9 mph
(S 11 kph)
- 8SM
10:00
Overcast
75°F / 24°C 66°F / 19°C 74% 29.77 in
(1008 mb)
SW 9.2 mph
(SW 15 kph)
- 8SM
09:53
Overcast
77°F / 25°C 66°F / 19°C 69% 29.77 in
(1008 mb)
SW 12.7 mph
(SW 20 kph)
- 9SM
09:36
Mostly Cloudy
75°F / 24°C 66°F / 19°C 74% 29.77 in
(1008 mb)
SSE 15 mph
(SSE 24 kph)
- 8SM
08:53
Clear
75°F / 24°C 66°F / 19°C 74% 29.77 in
(1008 mb)
SSE 12.7 mph
(SSE 20 kph)
- 8SM
07:53
Clear
72°F / 22°C 64°F / 18°C 78% 29.8 in
(1009 mb)
SSE 6.9 mph
(SSE 11 kph)
- 8SM
06:53
Mostly Cloudy
66°F / 19°C 64°F / 18°C 94% 29.8 in
(1009 mb)
SE 5.8 mph
(SE 9 kph)
- 7SM
05:53
Partly Cloudy
64°F / 18°C 63°F / 17°C 94% 29.8 in
(1009 mb)
SE 3.5 mph
(SE 6 kph)
- 7SM
04:53
Overcast
64°F / 18°C 63°F / 17°C 94% 29.8 in
(1009 mb)
E 3.5 mph
(E 6 kph)
- 8SM
04:27
Mostly Cloudy
64°F / 18°C 63°F / 17°C 94% 29.77 in
(1008 mb)
ESE 3.5 mph
(ESE 6 kph)
- 7SM
03:53
Partly Cloudy
64°F / 18°C 63°F / 17°C 94% 29.77 in
(1008 mb)
E 4.6 mph
(E 7 kph)
- 8SM
03:36
Mostly Cloudy
64°F / 18°C 63°F / 17°C 94% 29.77 in
(1008 mb)
ENE 4.6 mph
(ENE 7 kph)
- 8SM
03:13
Mostly Cloudy
64°F / 18°C 63°F / 17°C 94% 29.77 in
(1008 mb)
ENE 3.5 mph
(ENE 6 kph)
- 8SM
02:53
Partly Cloudy
63°F / 17°C 61°F / 16°C 94% 29.77 in
(1008 mb)
ENE 3.5 mph
(ENE 6 kph)
- 8SM
01:53
Partly Cloudy
64°F / 18°C 63°F / 17°C 94% 29.77 in
(1008 mb)
E 3.5 mph
(E 6 kph)
- 8SM
01:48
Partly Cloudy
64°F / 18°C 63°F / 17°C 94% 29.77 in
(1008 mb)
E 3.5 mph
(E 6 kph)
- 9SM
01:21
Mostly Cloudy
66°F / 19°C 63°F / 17°C 88% 29.77 in
(1008 mb)
E 3.5 mph
(E 6 kph)
- 9SM
00:53
Overcast
66°F / 19°C 63°F / 17°C 88% 29.8 in
(1009 mb)
E 3.5 mph
(E 6 kph)
- 9SM
Time Weather Temperature Dewpoint Humidity Pressure Winds Precip Visibility


Weather for websites

WeatherForYou.com, LLC is not responsible for any damages or problems caused by this service. Current weather conditions are obtained from the closest station including government and personal stations which may have varying degrees of accuracy. Weather forecasts are derived from the NOAA NDFD. Like all things, this site belongs to Jesus Christ... He just trusts us to maintain it. If you have any questions or comments email webmaster@weatherforyou.com

Copyright © 2016, WeatherForYou.com LLC. All rights reserved.